081  
ASUS43 KFSD 300402  
RWRFSD  
 
WEATHER ROUNDUP FOR SE SOUTH DAKOTA/SW MINNESOTA/NW IOWA  
NATIONAL WEATHER SERVICE SIOUX FALLS SD  
1000 PM CST SUN JAN 29 2023  
 
NOTE: "FAIR" INDICATES FEW OR NO CLOUDS BELOW 12,000 FEET WITH NO  
SIGNIFICANT WEATHER AND OR S TO VISIBILITY
.  
 
 
SDZ038>040-050-052>070-300500-  
SOUTHEAST SOUTH DAKOTA  
 
CITY SKY/WX TMP DP RH WIND PRES REMARKS
 
BROOKINGS PTCLDY -4 -10 75 NW9 30.39S WCI -20  
CHAMBERLAIN PTCLDY -3 -7 84 W6 30.44S WCI -15  
HURON PTCLDY -3 -9 75 W8 30.44F WCI -18  
MADISON PTCLDY -2 0 100 W8 30.39R WCI -17  
MITCHELL PTCLDY 1 -3 83 W3 30.48R  
SIOUX FALLS FLURRIES 3 -4 72 W8 30.44R WCI -10  
WINNER PTCLDY -5 -8 87 W9 30.41S WCI -22  
YANKTON FLURRIES 1 -3 83 W10 30.49R WCI -15  

 
 
MNZ071-072-080-081-089-090-097-098-300500-  
SOUTHWEST MINNESOTA  
 
CITY SKY/WX TMP DP RH WIND PRES REMARKS
 
FAIRMONT MOCLDY 2 -4 76 NW9 30.44R WCI -13  
JACKSON MOCLDY 1 -6 71 W9 30.41R WCI -14  
LUVERNE CLOUDY 1 -4 78 W10 30.44R WCI -14  
MARSHALL PTCLDY -1 -7 75 W10 30.43R WCI -17  
MONTEVIDEO PTCLDY 0 -8 71 W8 30.43S WCI -15  
REDWOOD FALLS PTCLDY 0 -8 69 W8 30.43R WCI -14  
TRACY CLOUDY -2 -6 84 W8 30.41S WCI -17  
WINDOM PTCLDY -2 -6 84 SW6 30.40R WCI -14  
WORTHINGTON FLURRIES -1 -6 79 W13 30.40R WCI -19  

 
 
IAZ001>003-012>014-020>022-031-032-NEZ013-014-SDZ071-300500-  
NORTHWEST IOWA  
 
CITY SKY/WX TMP DP RH WIND PRES REMARKS
 
CHEROKEE CLOUDY 3 -2 81 W7 30.47S WCI -10  
DENISON N/A N/A N/A N/A MISG N/A  
ESTHERVILLE CLOUDY 2 -5 72 W12 30.42R WCI -15  
MAURICE CLOUDY -2 -6 84 W8 30.44S WCI -17  
SIOUX CITY CLOUDY 5 -1 76 NW7 30.50S WCI -7  
SPENCER MOCLDY 3 -6 66 W8 30.43S WCI -10  

 
 
ABBREVIATIONS USED IN REMARKS  
TC - TEMPERATURE IN CELSIUS  
WCI - WIND CHILL INDEX  
HX - HEAT INDEX  
VSB - VISIBILITY  
 
 
 
CLICK HERE TO GO TO PREVIOUS BULLETINS.

The Nexlab SD Page
The Nexlab IA Page
The Nexlab MN Page
The Nexlab NE Page Main Text Page